This is the latest recevied weather packets stored in our database for station/object VR2R-13. If no packets are shown the sender has not sent any weather packets the latest 1 day(s).
| Time | Temp. | Humidity | Pressure | Rain* | Wind** | Luminosity | Snow |
|---|---|---|---|---|---|---|---|
| 1777992465 | 16.11° C | 97% | 914.6 hPa | 0 mm | 3.13 m/s, 69° | - | - |
| 1777992463 | 16.11° C | 97% | 914.6 hPa | 0 mm | 3.13 m/s, 71° | - | - |
| 1777992104 | 16.11° C | 97% | 914.5 hPa | 0 mm | 4.47 m/s, 66° | - | - |
| 1777991863 | 16.11° C | 97% | 914.5 hPa | 0 mm | 4.47 m/s, 46° | - | - |
| 1777991744 | 16.11° C | 97% | 914.5 hPa | 0 mm | 4.47 m/s, 65° | - | - |
| 1777991563 | 16.11° C | 97% | 914.5 hPa | 0 mm | 3.13 m/s, 54° | - | - |
| 1777991384 | 16.11° C | 97% | 914.6 hPa | 0 mm | 3.58 m/s, 47° | - | - |
| 1777991263 | 16.11° C | 97% | 914.5 hPa | 0 mm | 3.13 m/s, 49° | - | - |
| 1777991024 | 16.11° C | 97% | 914.7 hPa | 0 mm | 2.24 m/s, 44° | - | - |
| 1777990963 | 16.11° C | 97% | 914.7 hPa | 0 mm | 0.45 m/s, 56° | - | - |
| 1777990365 | 16.11° C | 97% | 914.6 hPa | 0 mm | 4.02 m/s, 64° | - | - |
| 1777990304 | 16.11° C | 97% | 914.6 hPa | 0 mm | 4.47 m/s, 73° | - | - |
| 1777990063 | 16.11° C | 97% | 914.6 hPa | 0 mm | 3.58 m/s, 59° | - | - |
| 1777989944 | 16.11° C | 97% | 914.6 hPa | 0 mm | 1.34 m/s, 59° | - | - |
| 1777989463 | 16.11° C | 97% | 914.6 hPa | 0 mm | 3.58 m/s, 52° | - | - |
| 1777989224 | 16.11° C | 97% | 914.5 hPa | 0 mm | 3.13 m/s, 65° | - | - |
| 1777989163 | 16.11° C | 97% | 914.5 hPa | 0 mm | 1.34 m/s, 56° | - | - |
| 1777988864 | 16.11° C | 97% | 914.5 hPa | 0 mm | 4.02 m/s, 76° | - | - |
| 1777988863 | 16.11° C | 97% | 914.5 hPa | 0 mm | 4.02 m/s, 62° | - | - |
| 1777988563 | 16.11° C | 97% | 914.5 hPa | 0 mm | 3.13 m/s, 49° | - | - |
| 1777988504 | 16.11° C | 97% | 914.5 hPa | 0 mm | 1.34 m/s, 56° | - | - |
| 1777988262 | 16.11° C | 97% | 914.5 hPa | 0 mm | 0.89 m/s, 49° | - | - |
| 1777988145 | 16.11° C | 97% | 914.6 hPa | 0 mm | 0 m/s | - | - |
| 1777987963 | 16.11° C | 97% | 914.5 hPa | 0 mm | 3.58 m/s, 39° | - | - |
| 1777987784 | 16.11° C | 97% | 914.5 hPa | 0 mm | 0.89 m/s, 35° | - | - |
* Rain latest hour (hover to see other rain measurements)
** Current wind speed in m/s (hover to see current wind gust speed)